Year,Month,Day,Hour,Minute,Value (Times are PST for windspeed in km/hr)
2007,12,25,00,00,0.10
2007,12,25,00,01,0.00
2007,12,25,00,02,0.00
2007,12,25,00,03,0.00
2007,12,25,00,04,0.00
2007,12,25,00,05,0.60
2007,12,25,00,06,0.00
2007,12,25,00,07,0.00
2007,12,25,00,08,0.00
2007,12,25,00,09,0.00
2007,12,25,00,10,0.00
2007,12,25,00,11,0.00
2007,12,25,00,12,0.00
2007,12,25,00,13,0.00
2007,12,25,01,02,0.00
2007,12,25,01,03,0.00
2007,12,25,01,04,0.00
2007,12,25,01,05,0.00
2007,12,25,01,06,0.00
2007,12,25,01,07,0.00
2007,12,25,01,08,0.00
2007,12,25,01,09,0.00
2007,12,25,01,10,0.00
2007,12,25,01,11,0.00
2007,12,25,01,12,0.00
2007,12,25,01,13,0.00
2007,12,25,01,14,0.00
2007,12,25,01,15,0.00
2007,12,25,01,16,0.00
2007,12,25,01,17,0.00
2007,12,25,01,18,0.00
2007,12,25,01,19,0.00
2007,12,25,01,20,0.00
2007,12,25,01,21,0.00
2007,12,25,01,22,0.00
2007,12,25,01,23,0.00
2007,12,25,01,24,0.00
2007,12,25,01,25,0.00
2007,12,25,01,26,0.00
2007,12,25,01,27,0.00
2007,12,25,01,28,0.10
2007,12,25,01,29,0.70
2007,12,25,01,30,0.60
2007,12,25,01,31,0.10
2007,12,25,01,32,0.40
2007,12,25,01,33,1.00
2007,12,25,01,34,2.00
2007,12,25,01,35,0.40
2007,12,25,01,36,0.00
2007,12,25,01,37,0.00
2007,12,25,01,38,0.00
2007,12,25,01,39,0.00
2007,12,25,01,40,0.00
2007,12,25,01,41,0.00
2007,12,25,01,42,0.00
2007,12,25,01,43,0.00
2007,12,25,01,44,0.00
2007,12,25,01,45,0.00
2007,12,25,01,46,0.00
2007,12,25,01,47,1.00
2007,12,25,01,48,0.60
2007,12,25,01,49,0.00
2007,12,25,01,50,0.00
2007,12,25,01,51,0.20
2007,12,25,01,52,0.00
2007,12,25,01,53,1.90
2007,12,25,01,54,0.80
2007,12,25,01,55,0.30
2007,12,25,01,56,0.00
2007,12,25,01,57,0.60
2007,12,25,01,58,1.60
2007,12,25,01,59,1.60
2007,12,25,02,00,0.50
2007,12,25,02,01,0.10
2007,12,25,02,02,0.90
2007,12,25,02,03,0.10
2007,12,25,02,04,2.10
2007,12,25,02,05,1.20
2007,12,25,02,06,0.00
2007,12,25,02,07,0.00
2007,12,25,02,08,0.00
2007,12,25,02,09,0.00
2007,12,25,02,10,0.00
2007,12,25,02,11,0.00
2007,12,25,02,12,0.00
2007,12,25,02,13,0.00
2007,12,25,02,14,0.00
2007,12,25,02,15,0.00
2007,12,25,02,16,0.00
2007,12,25,02,17,0.00
2007,12,25,02,18,0.00
2007,12,25,02,19,0.00
2007,12,25,02,20,0.00
2007,12,25,02,21,0.00
2007,12,25,02,22,0.00
2007,12,25,02,23,0.00
2007,12,25,02,24,0.00
2007,12,25,02,25,0.00
2007,12,25,02,26,0.00
2007,12,25,02,27,0.00
2007,12,25,02,28,0.00
2007,12,25,02,29,0.00
2007,12,25,02,30,0.00
2007,12,25,02,31,0.00
2007,12,25,02,32,0.00
2007,12,25,02,33,0.00
2007,12,25,02,34,0.00
2007,12,25,02,35,0.00
2007,12,25,02,36,0.00
2007,12,25,02,37,0.00
2007,12,25,02,38,0.00
2007,12,25,02,39,0.00
2007,12,25,02,40,0.00
2007,12,25,02,41,0.00
2007,12,25,02,42,0.00
2007,12,25,02,43,0.00
2007,12,25,02,44,0.00
2007,12,25,02,45,0.00
2007,12,25,02,46,0.00
2007,12,25,02,47,0.00
2007,12,25,02,48,0.00
2007,12,25,02,49,0.00
2007,12,25,02,50,0.00
2007,12,25,02,51,0.00
2007,12,25,02,52,0.00
2007,12,25,02,53,0.00
2007,12,25,02,54,0.00
2007,12,25,02,55,0.00
2007,12,25,02,56,0.00
2007,12,25,02,57,0.00
2007,12,25,02,58,0.00
2007,12,25,02,59,0.00
2007,12,25,03,00,0.00
2007,12,25,03,01,0.00
2007,12,25,03,02,0.00
2007,12,25,03,03,0.00
2007,12,25,03,04,0.00
2007,12,25,03,05,0.00
2007,12,25,03,06,0.00
2007,12,25,03,07,0.00
2007,12,25,03,08,0.00
2007,12,25,03,09,0.00
2007,12,25,03,10,0.00
2007,12,25,03,11,0.00
2007,12,25,03,12,0.00
2007,12,25,03,13,0.00
2007,12,25,03,14,0.00
2007,12,25,03,15,1.10
2007,12,25,03,16,0.90
2007,12,25,03,17,2.50
2007,12,25,03,18,4.70
2007,12,25,03,19,0.90
2007,12,25,03,20,1.90
2007,12,25,03,21,1.90
2007,12,25,03,22,1.50
2007,12,25,03,23,0.80
2007,12,25,03,24,1.70
2007,12,25,03,25,4.90
2007,12,25,03,26,4.60
2007,12,25,03,27,3.30
2007,12,25,03,28,2.50
2007,12,25,03,29,3.70
2007,12,25,03,30,0.10
2007,12,25,03,31,1.40
2007,12,25,03,32,2.60
2007,12,25,03,33,4.40
2007,12,25,03,34,3.50
2007,12,25,03,35,0.50
2007,12,25,03,36,4.10
2007,12,25,03,37,2.70
2007,12,25,03,38,1.40
2007,12,25,03,39,4.90
2007,12,25,03,40,3.90
2007,12,25,03,41,4.90
2007,12,25,03,42,2.80
2007,12,25,03,43,2.30
2007,12,25,03,44,5.60
2007,12,25,03,45,5.60
2007,12,25,03,46,6.50
2007,12,25,03,47,11.40
2007,12,25,03,48,7.80
2007,12,25,03,49,4.30
2007,12,25,03,50,4.10
2007,12,25,03,51,5.80
2007,12,25,03,52,7.80
2007,12,25,03,53,3.40
2007,12,25,03,54,6.40
2007,12,25,03,55,2.90
2007,12,25,03,56,4.00
2007,12,25,03,57,8.70
2007,12,25,03,58,16.10
2007,12,25,03,59,3.10
2007,12,25,04,00,3.30
2007,12,25,04,01,5.20
2007,12,25,04,02,9.90
2007,12,25,04,03,3.60
2007,12,25,04,04,4.20
2007,12,25,04,05,10.60
2007,12,25,04,06,5.70
2007,12,25,04,07,12.00
2007,12,25,04,08,4.50
2007,12,25,04,09,10.20
2007,12,25,04,10,6.10
2007,12,25,04,11,6.40
2007,12,25,04,12,9.20
2007,12,25,04,13,6.10
2007,12,25,04,14,8.50
2007,12,25,04,15,6.00
2007,12,25,04,16,7.30
2007,12,25,04,17,4.10
2007,12,25,04,18,4.60
2007,12,25,04,19,1.20
2007,12,25,04,20,0.40
2007,12,25,04,21,7.40
2007,12,25,04,22,3.60
2007,12,25,04,23,5.90
2007,12,25,04,24,4.70
2007,12,25,04,25,4.10
2007,12,25,04,26,1.70
2007,12,25,04,27,3.40
2007,12,25,04,28,2.50
2007,12,25,04,29,1.30
2007,12,25,04,30,2.90
2007,12,25,04,31,6.20
2007,12,25,04,32,3.30
2007,12,25,04,33,4.30
2007,12,25,04,34,4.00
2007,12,25,04,35,8.30
2007,12,25,04,36,1.80
2007,12,25,04,37,2.50
2007,12,25,04,38,4.50
2007,12,25,04,39,7.20
2007,12,25,04,40,2.60
2007,12,25,04,41,4.50
2007,12,25,04,42,2.10
2007,12,25,04,43,7.10
2007,12,25,04,44,1.80
2007,12,25,04,45,1.20
2007,12,25,04,46,1.00
2007,12,25,04,47,5.50
2007,12,25,04,48,4.10
2007,12,25,04,49,2.60
2007,12,25,04,50,4.50
2007,12,25,04,51,10.10
2007,12,25,04,52,3.30
2007,12,25,04,53,2.90
2007,12,25,04,54,6.60
2007,12,25,04,55,3.10
2007,12,25,04,56,5.30
2007,12,25,04,57,6.70
2007,12,25,04,58,6.10
2007,12,25,04,59,7.60
2007,12,25,05,00,1.80
2007,12,25,05,01,11.20
2007,12,25,05,02,8.30
2007,12,25,05,03,2.90
2007,12,25,05,04,4.70
2007,12,25,05,05,3.40
2007,12,25,05,06,4.10
2007,12,25,05,07,3.60
2007,12,25,05,08,4.40
2007,12,25,05,09,7.20
2007,12,25,05,10,5.80
2007,12,25,05,11,4.10
2007,12,25,05,12,4.00
2007,12,25,05,13,6.40
2007,12,25,05,14,5.30
2007,12,25,05,15,3.70
2007,12,25,05,16,4.20
2007,12,25,05,17,3.10
2007,12,25,05,18,7.00
2007,12,25,05,19,6.80
2007,12,25,05,20,3.30
2007,12,25,05,21,2.30
2007,12,25,05,22,3.60
2007,12,25,05,23,5.00
2007,12,25,05,24,2.50
2007,12,25,05,25,4.70
2007,12,25,05,26,3.70
2007,12,25,05,27,6.80
2007,12,25,05,28,4.60
2007,12,25,05,29,1.80
2007,12,25,05,30,1.30
2007,12,25,05,31,0.80
2007,12,25,05,32,2.40
2007,12,25,05,33,0.40
2007,12,25,05,34,2.50
2007,12,25,05,35,0.80
2007,12,25,05,36,6.20
2007,12,25,05,37,3.00
2007,12,25,05,38,0.10
2007,12,25,05,39,0.20
2007,12,25,05,40,2.70
2007,12,25,05,41,2.00
2007,12,25,05,42,5.00
2007,12,25,05,43,3.50
2007,12,25,05,44,4.40
2007,12,25,05,45,3.50
2007,12,25,05,46,7.70
2007,12,25,05,47,7.10
2007,12,25,05,48,2.80
2007,12,25,05,49,3.50
2007,12,25,05,50,6.30
2007,12,25,05,51,4.90
2007,12,25,05,52,1.50
2007,12,25,05,53,2.50
2007,12,25,05,54,3.20
2007,12,25,05,55,1.60
2007,12,25,05,56,6.40
2007,12,25,05,57,8.40
2007,12,25,05,58,6.30
2007,12,25,05,59,6.10
2007,12,25,06,00,7.90
2007,12,25,06,01,5.90
2007,12,25,06,02,6.00
2007,12,25,06,03,6.90
2007,12,25,06,04,5.10
2007,12,25,06,05,11.20
2007,12,25,06,06,8.30
2007,12,25,06,07,4.60
2007,12,25,06,08,5.10
2007,12,25,06,09,9.40
2007,12,25,06,10,4.10
2007,12,25,06,11,3.90
2007,12,25,06,12,0.30
2007,12,25,06,13,4.20
2007,12,25,06,14,2.40
2007,12,25,06,15,3.00
2007,12,25,06,16,2.40
2007,12,25,06,17,10.60
2007,12,25,06,18,11.90
2007,12,25,06,19,1.60
2007,12,25,06,20,1.60
2007,12,25,06,21,1.10
2007,12,25,06,22,4.30
2007,12,25,06,23,3.90
2007,12,25,06,24,3.00
2007,12,25,06,25,5.90
2007,12,25,06,26,5.30
2007,12,25,06,27,2.10
2007,12,25,06,28,5.70
2007,12,25,06,29,3.80
2007,12,25,06,30,3.70
2007,12,25,06,31,5.60
2007,12,25,06,32,2.50
2007,12,25,06,33,0.50
2007,12,25,06,34,1.70
2007,12,25,06,35,4.10
2007,12,25,06,36,3.20
2007,12,25,06,37,2.90
2007,12,25,06,38,3.40
2007,12,25,06,39,3.60
2007,12,25,06,40,5.40
2007,12,25,06,41,2.80
2007,12,25,06,42,3.30
2007,12,25,06,43,3.90
2007,12,25,06,44,7.70
2007,12,25,06,45,3.00
2007,12,25,06,46,4.70
2007,12,25,06,47,5.90
2007,12,25,06,48,6.10
2007,12,25,06,49,5.50
2007,12,25,06,50,6.70
2007,12,25,06,51,1.90
2007,12,25,06,52,6.10
2007,12,25,06,53,5.50
2007,12,25,06,54,3.70
2007,12,25,06,55,3.20
2007,12,25,06,56,7.40
2007,12,25,06,57,7.20
2007,12,25,06,58,3.80
2007,12,25,06,59,3.00
2007,12,25,07,00,2.20
2007,12,25,07,01,4.10
2007,12,25,07,02,4.80
2007,12,25,07,03,8.00
2007,12,25,07,04,1.80
2007,12,25,07,05,1.60
2007,12,25,07,06,5.70
2007,12,25,07,07,2.20
2007,12,25,07,08,3.50
2007,12,25,07,09,6.90
2007,12,25,07,10,4.50
2007,12,25,07,11,3.20
2007,12,25,07,12,4.30
2007,12,25,07,13,4.70
2007,12,25,07,14,3.50
2007,12,25,07,15,1.00
2007,12,25,07,16,5.10
2007,12,25,07,17,6.40
2007,12,25,07,18,7.20
2007,12,25,07,19,4.40
2007,12,25,07,20,7.90
2007,12,25,07,21,9.20
2007,12,25,07,22,3.90
2007,12,25,07,23,5.10
2007,12,25,07,24,8.90
2007,12,25,07,25,8.10
2007,12,25,07,26,18.60
2007,12,25,07,27,13.70
2007,12,25,07,28,8.60
2007,12,25,07,29,7.20
2007,12,25,07,30,2.60
2007,12,25,07,31,17.00
2007,12,25,07,32,18.30
2007,12,25,07,33,11.80
2007,12,25,07,34,12.60
2007,12,25,07,35,10.50
2007,12,25,07,36,7.40
2007,12,25,07,37,7.40
2007,12,25,07,38,4.20
2007,12,25,07,39,0.70
2007,12,25,07,40,6.20
2007,12,25,07,41,10.60
2007,12,25,07,42,13.90
2007,12,25,07,43,8.50
2007,12,25,07,44,6.80
2007,12,25,07,45,12.00
2007,12,25,07,46,8.70
2007,12,25,07,47,9.60
2007,12,25,07,48,15.00
2007,12,25,07,49,14.30
2007,12,25,07,50,10.60
2007,12,25,07,51,10.40
2007,12,25,07,52,10.60
2007,12,25,07,53,4.70
2007,12,25,07,54,4.40
2007,12,25,07,55,4.00
2007,12,25,07,56,7.70
2007,12,25,07,57,3.80
2007,12,25,07,58,1.30
2007,12,25,07,59,4.50
2007,12,25,08,00,10.00
2007,12,25,08,01,8.70
2007,12,25,08,02,9.00
2007,12,25,08,03,10.30
2007,12,25,08,04,7.70
2007,12,25,08,05,9.70
2007,12,25,08,06,8.60
2007,12,25,08,07,9.60
2007,12,25,08,08,7.00
2007,12,25,08,09,8.50
2007,12,25,08,10,5.50
2007,12,25,08,11,10.30
2007,12,25,08,12,12.60
2007,12,25,08,13,7.10
2007,12,25,08,14,12.00
2007,12,25,08,15,10.00
2007,12,25,08,16,7.40
2007,12,25,08,17,10.50
2007,12,25,08,18,7.90
2007,12,25,08,19,12.30
2007,12,25,08,20,7.10
2007,12,25,08,21,15.00
2007,12,25,08,22,20.40
2007,12,25,08,23,14.80
2007,12,25,08,24,9.40
2007,12,25,08,25,4.00
2007,12,25,08,26,13.40
2007,12,25,08,27,7.20
2007,12,25,08,28,13.20
2007,12,25,08,29,11.30
2007,12,25,08,30,13.10
2007,12,25,08,31,15.10
2007,12,25,08,32,8.20
2007,12,25,08,33,15.80
2007,12,25,08,34,10.90
2007,12,25,08,35,8.00
2007,12,25,08,36,17.80
2007,12,25,08,37,16.30
2007,12,25,08,38,15.60
2007,12,25,08,39,1.90
2007,12,25,08,40,3.10
2007,12,25,08,41,11.60
2007,12,25,08,42,6.80
2007,12,25,08,43,11.90
2007,12,25,08,44,15.60
2007,12,25,08,45,9.80
2007,12,25,08,46,6.90
2007,12,25,08,47,7.20
2007,12,25,08,48,1.20
2007,12,25,08,49,1.30
2007,12,25,08,50,7.10
2007,12,25,08,51,8.80
2007,12,25,08,52,13.70
2007,12,25,08,53,9.50
2007,12,25,08,54,17.20
2007,12,25,08,55,11.50
2007,12,25,08,56,11.50
2007,12,25,08,57,8.30
2007,12,25,08,58,4.80
2007,12,25,08,59,5.50
2007,12,25,09,00,9.20
2007,12,25,09,01,11.10
2007,12,25,09,02,9.40
2007,12,25,09,03,16.10
2007,12,25,09,04,8.60
2007,12,25,09,05,1.20
2007,12,25,09,06,11.30
2007,12,25,09,07,9.90
2007,12,25,09,08,10.00
2007,12,25,09,09,5.40
2007,12,25,09,10,10.90
2007,12,25,09,11,1.90
2007,12,25,09,12,13.20
2007,12,25,09,13,8.70
2007,12,25,09,14,5.80
2007,12,25,09,15,6.70
2007,12,25,09,16,8.40
2007,12,25,09,17,9.70
2007,12,25,09,18,8.30
2007,12,25,09,19,4.60
2007,12,25,09,20,3.10
2007,12,25,09,21,3.70
2007,12,25,09,22,6.20
2007,12,25,09,23,18.50
2007,12,25,09,24,6.50
2007,12,25,09,25,6.30
2007,12,25,09,26,3.50
2007,12,25,09,27,5.60
2007,12,25,09,28,6.80
2007,12,25,09,29,11.60
2007,12,25,09,30,10.00
2007,12,25,09,31,9.00
2007,12,25,09,32,8.50
2007,12,25,09,33,5.60
2007,12,25,09,34,4.00
2007,12,25,09,35,10.60
2007,12,25,09,36,12.60
2007,12,25,09,37,5.80
2007,12,25,09,38,6.10
2007,12,25,09,39,6.90
2007,12,25,09,40,6.40
2007,12,25,09,41,6.60
2007,12,25,09,42,5.60
2007,12,25,09,43,4.50
2007,12,25,09,44,6.90
2007,12,25,09,45,3.50
2007,12,25,09,46,4.90
2007,12,25,09,47,6.60
2007,12,25,09,48,9.50
2007,12,25,09,49,13.80
2007,12,25,09,50,16.70
2007,12,25,09,51,15.90
2007,12,25,09,52,15.30
2007,12,25,09,53,12.30
2007,12,25,09,54,9.90
2007,12,25,09,55,6.90
2007,12,25,09,56,11.80
2007,12,25,09,57,6.70
2007,12,25,09,58,11.20
2007,12,25,09,59,11.30
2007,12,25,10,00,6.10
2007,12,25,10,01,9.10
2007,12,25,10,02,3.90
2007,12,25,10,03,5.50
2007,12,25,10,04,11.60
2007,12,25,10,05,10.10
2007,12,25,10,06,12.80
2007,12,25,10,07,22.40
2007,12,25,10,08,10.70
2007,12,25,10,09,10.20
2007,12,25,10,10,11.00
2007,12,25,10,11,12.10
2007,12,25,10,12,15.30
2007,12,25,10,13,13.00
2007,12,25,10,14,6.30
2007,12,25,10,15,8.70
2007,12,25,10,16,4.40
2007,12,25,10,17,17.60
2007,12,25,10,18,14.70
2007,12,25,10,19,6.70
2007,12,25,10,20,11.40
2007,12,25,10,21,15.20
2007,12,25,10,22,14.70
2007,12,25,10,23,14.90
2007,12,25,10,24,3.60
2007,12,25,10,25,6.30
2007,12,25,10,26,11.90
2007,12,25,10,27,5.90
2007,12,25,10,28,8.20
2007,12,25,10,29,11.40
2007,12,25,10,30,11.50
2007,12,25,10,31,5.70
2007,12,25,10,32,15.90
2007,12,25,10,33,4.30
2007,12,25,10,34,6.40
2007,12,25,10,35,8.20
2007,12,25,10,36,4.10
2007,12,25,10,37,8.10
2007,12,25,10,38,10.40
2007,12,25,10,39,5.50
2007,12,25,10,40,9.50
2007,12,25,10,41,4.80
2007,12,25,10,42,6.20
2007,12,25,10,43,3.50
2007,12,25,10,44,6.40
2007,12,25,10,45,10.40
2007,12,25,10,46,10.80
2007,12,25,10,47,5.50
2007,12,25,10,48,12.10
2007,12,25,10,49,9.60
2007,12,25,10,50,7.00
2007,12,25,10,51,3.00
2007,12,25,10,52,6.40
2007,12,25,10,53,11.10
2007,12,25,10,54,14.40
2007,12,25,10,55,5.70
2007,12,25,10,56,10.50
2007,12,25,10,57,10.60
2007,12,25,10,58,13.00
2007,12,25,10,59,7.00
2007,12,25,11,00,12.10
2007,12,25,11,01,18.00
2007,12,25,11,02,18.10
2007,12,25,11,03,10.20
2007,12,25,11,04,8.80
2007,12,25,11,05,10.70
2007,12,25,11,06,13.40
2007,12,25,11,07,13.00
2007,12,25,11,08,23.70
2007,12,25,11,09,11.40
2007,12,25,11,10,17.90
2007,12,25,11,11,10.20
2007,12,25,11,12,18.00
2007,12,25,11,13,11.30
2007,12,25,11,14,17.80
2007,12,25,11,15,24.10
2007,12,25,11,16,17.20
2007,12,25,11,17,25.50
2007,12,25,11,18,11.70
2007,12,25,11,19,11.10
2007,12,25,11,20,19.30
2007,12,25,11,21,13.20
2007,12,25,11,22,17.30
2007,12,25,11,23,14.00
2007,12,25,11,24,9.20
2007,12,25,11,25,18.20
2007,12,25,11,26,16.40
2007,12,25,11,27,21.10
2007,12,25,11,28,18.10
2007,12,25,11,29,16.10
2007,12,25,11,30,16.40
2007,12,25,11,31,4.40
2007,12,25,11,32,9.80
2007,12,25,11,33,19.50
2007,12,25,11,34,17.70
2007,12,25,11,35,12.00
2007,12,25,11,36,9.30
2007,12,25,11,37,19.70
2007,12,25,11,38,15.60
2007,12,25,11,39,17.60
2007,12,25,11,40,11.50
2007,12,25,11,41,18.80
2007,12,25,11,42,14.60
2007,12,25,11,43,9.60
2007,12,25,11,44,12.30
2007,12,25,11,45,13.00
2007,12,25,11,46,10.20
2007,12,25,11,47,6.50
2007,12,25,11,48,3.80
2007,12,25,11,49,8.50
2007,12,25,11,50,10.40
2007,12,25,11,51,16.10
2007,12,25,11,52,10.50
2007,12,25,11,53,22.50
2007,12,25,11,54,13.70
2007,12,25,11,55,4.10
2007,12,25,11,56,5.90
2007,12,25,11,57,7.00
2007,12,25,11,58,15.40
2007,12,25,11,59,12.10
2007,12,25,12,00,11.50
2007,12,25,12,01,5.40
2007,12,25,12,02,3.50
2007,12,25,12,03,9.40
2007,12,25,12,04,5.10
2007,12,25,12,05,5.70
2007,12,25,12,06,9.20
2007,12,25,12,07,14.40
2007,12,25,12,08,24.50
2007,12,25,12,09,13.80
2007,12,25,12,10,9.50
2007,12,25,12,11,19.30
2007,12,25,12,12,9.50
2007,12,25,12,13,5.70
2007,12,25,12,14,8.80
2007,12,25,12,15,8.00
2007,12,25,12,16,14.00
2007,12,25,12,17,11.20
2007,12,25,12,18,6.80
2007,12,25,12,19,17.60
2007,12,25,12,20,12.20
2007,12,25,12,21,20.40
2007,12,25,12,22,10.60
2007,12,25,12,23,10.90
2007,12,25,12,24,12.50
2007,12,25,12,25,20.20
2007,12,25,12,26,13.60
2007,12,25,12,27,13.80
2007,12,25,12,28,12.90
2007,12,25,12,29,13.80
2007,12,25,12,30,13.50
2007,12,25,12,31,9.70
2007,12,25,12,32,11.00
2007,12,25,12,33,16.50
2007,12,25,12,34,19.50
2007,12,25,12,35,26.70
2007,12,25,12,36,16.20
2007,12,25,12,37,13.60
2007,12,25,12,38,10.00
2007,12,25,12,39,15.80
2007,12,25,12,40,24.20
2007,12,25,12,41,15.90
2007,12,25,12,42,17.80
2007,12,25,12,43,9.70
2007,12,25,12,44,11.70
2007,12,25,12,45,5.40
2007,12,25,12,46,8.50
2007,12,25,12,47,13.80
2007,12,25,12,48,19.60
2007,12,25,12,49,21.10
2007,12,25,12,50,16.50
2007,12,25,12,51,20.30
2007,12,25,12,52,14.10
2007,12,25,12,53,22.20
2007,12,25,12,54,29.50
2007,12,25,12,55,25.50
2007,12,25,12,56,25.30
2007,12,25,12,57,22.70
2007,12,25,12,58,8.90
2007,12,25,12,59,17.70
2007,12,25,13,00,6.00
2007,12,25,13,01,4.20
2007,12,25,13,02,15.70
2007,12,25,13,03,11.50
2007,12,25,13,04,11.00
2007,12,25,13,05,17.70
2007,12,25,13,06,21.30
2007,12,25,13,07,9.50
2007,12,25,13,08,20.00
2007,12,25,13,09,28.20
2007,12,25,13,10,8.60
2007,12,25,13,11,14.60
2007,12,25,13,12,17.80
2007,12,25,13,13,20.60
2007,12,25,13,14,10.00
2007,12,25,13,15,25.10
2007,12,25,13,16,11.80
2007,12,25,13,17,21.10
2007,12,25,13,18,16.50
2007,12,25,13,19,21.80
2007,12,25,13,20,19.40
2007,12,25,13,21,10.00
2007,12,25,13,22,17.50
2007,12,25,13,23,14.40
2007,12,25,13,24,13.70
2007,12,25,13,25,12.00
2007,12,25,13,26,20.00
2007,12,25,13,27,14.80
2007,12,25,13,28,12.50
2007,12,25,13,29,8.70
2007,12,25,13,30,16.10
2007,12,25,13,31,20.80
2007,12,25,13,32,14.80
2007,12,25,13,33,13.00
2007,12,25,13,34,18.30
2007,12,25,13,35,11.50
2007,12,25,13,36,7.50
2007,12,25,13,37,15.40
2007,12,25,13,38,23.60
2007,12,25,13,39,21.40
2007,12,25,13,40,16.40
2007,12,25,13,41,23.40
2007,12,25,13,42,17.40
2007,12,25,13,43,14.60
2007,12,25,13,44,16.50
2007,12,25,13,45,23.00
2007,12,25,13,46,13.90
2007,12,25,13,47,16.50
2007,12,25,13,48,17.20
2007,12,25,13,49,24.20
2007,12,25,13,50,19.00
2007,12,25,13,51,20.30
2007,12,25,13,52,9.70
2007,12,25,13,53,8.80
2007,12,25,13,54,10.00
2007,12,25,13,55,18.10
2007,12,25,13,56,6.20
2007,12,25,13,57,6.30
2007,12,25,13,58,21.00
2007,12,25,13,59,15.40
2007,12,25,14,00,16.50
2007,12,25,14,01,10.10
2007,12,25,14,02,18.80
2007,12,25,14,03,12.50
2007,12,25,14,04,24.60
2007,12,25,14,05,23.60
2007,12,25,14,06,13.20
2007,12,25,14,07,12.60
2007,12,25,14,08,16.70
2007,12,25,14,09,22.20
2007,12,25,14,10,21.50
2007,12,25,14,11,28.20
2007,12,25,14,12,20.40
2007,12,25,14,13,10.80
2007,12,25,14,14,15.40
2007,12,25,14,15,18.30
2007,12,25,14,16,17.50
2007,12,25,14,17,21.70
2007,12,25,14,18,17.50
2007,12,25,14,19,11.30
2007,12,25,14,20,12.10
2007,12,25,14,21,17.60
2007,12,25,14,22,13.20
2007,12,25,14,23,15.80
2007,12,25,14,24,22.60
2007,12,25,14,25,18.40
2007,12,25,14,26,26.90
2007,12,25,14,27,17.20
2007,12,25,14,28,10.30
2007,12,25,14,29,10.10
2007,12,25,14,30,30.60
2007,12,25,14,31,17.90
2007,12,25,14,32,16.30
2007,12,25,14,33,41.40
2007,12,25,14,34,21.90
2007,12,25,14,35,17.30
2007,12,25,14,36,12.10
2007,12,25,14,37,11.80
2007,12,25,14,38,7.20
2007,12,25,14,39,3.40
2007,12,25,14,40,16.30
2007,12,25,14,41,26.00
2007,12,25,14,42,20.00
2007,12,25,14,43,13.40
2007,12,25,14,44,11.30
2007,12,25,14,45,18.60
2007,12,25,14,46,22.80
2007,12,25,14,47,12.60
2007,12,25,14,48,14.90
2007,12,25,14,49,22.50
2007,12,25,14,50,22.20
2007,12,25,14,51,23.70
2007,12,25,14,52,14.30
2007,12,25,14,53,21.10
2007,12,25,14,54,16.80
2007,12,25,14,55,17.30
2007,12,25,14,56,16.80
2007,12,25,14,57,22.40
2007,12,25,14,58,12.20
2007,12,25,14,59,7.10
2007,12,25,15,00,13.40
2007,12,25,15,01,13.00
2007,12,25,15,02,11.70
2007,12,25,15,03,15.80
2007,12,25,15,04,11.80
2007,12,25,15,05,11.10
2007,12,25,15,06,14.10
2007,12,25,15,07,12.50
2007,12,25,15,08,16.80
2007,12,25,15,09,20.00
2007,12,25,15,10,8.60
2007,12,25,15,11,15.50
2007,12,25,15,12,17.60
2007,12,25,15,13,15.40
2007,12,25,15,14,12.00
2007,12,25,15,15,20.50
2007,12,25,15,16,16.70
2007,12,25,15,17,19.10
2007,12,25,15,18,21.20
2007,12,25,15,19,21.00
2007,12,25,15,20,10.50
2007,12,25,15,21,16.20
2007,12,25,15,22,17.10
2007,12,25,15,23,15.90
2007,12,25,15,24,17.90
2007,12,25,15,25,20.90
2007,12,25,15,26,14.40
2007,12,25,15,27,17.50
2007,12,25,15,28,20.70
2007,12,25,15,29,19.10
2007,12,25,15,30,10.50
2007,12,25,15,31,13.30
2007,12,25,15,32,17.90
2007,12,25,15,33,25.70
2007,12,25,15,34,17.60
2007,12,25,15,35,22.90
2007,12,25,15,36,17.50
2007,12,25,15,37,14.10
2007,12,25,15,38,9.50
2007,12,25,15,39,17.20
2007,12,25,15,40,22.80
2007,12,25,15,41,31.60
2007,12,25,15,42,9.80
2007,12,25,15,43,11.80
2007,12,25,15,44,7.90
2007,12,25,15,45,18.10
2007,12,25,15,46,6.30
2007,12,25,15,47,17.20
2007,12,25,15,48,14.00
2007,12,25,15,49,18.90
2007,12,25,15,50,15.40
2007,12,25,15,51,23.10
2007,12,25,15,52,21.80
2007,12,25,15,53,18.50
2007,12,25,15,54,13.80
2007,12,25,15,55,11.30
2007,12,25,15,56,13.80
2007,12,25,15,57,15.00
2007,12,25,15,58,11.60
2007,12,25,15,59,14.50
2007,12,25,16,00,13.20
2007,12,25,16,01,16.00
2007,12,25,16,02,11.40
2007,12,25,16,03,10.30
2007,12,25,16,04,16.20
2007,12,25,16,05,15.40
2007,12,25,16,06,7.30
2007,12,25,16,07,19.00
2007,12,25,16,08,12.70
2007,12,25,16,09,12.80
2007,12,25,16,10,8.90
2007,12,25,16,11,9.70
2007,12,25,16,12,13.50
2007,12,25,16,13,13.20
2007,12,25,16,14,11.20
2007,12,25,16,15,10.10
2007,12,25,16,16,13.80
2007,12,25,16,17,16.10
2007,12,25,16,18,10.60
2007,12,25,16,19,18.50
2007,12,25,16,20,5.00
2007,12,25,16,21,4.30
2007,12,25,16,22,4.50
2007,12,25,16,23,18.90
2007,12,25,16,24,14.10
2007,12,25,16,25,16.90
2007,12,25,16,26,14.10
2007,12,25,16,27,8.10
2007,12,25,16,28,16.10
2007,12,25,16,29,13.70
2007,12,25,16,30,11.30
2007,12,25,16,31,9.20
2007,12,25,16,32,3.60
2007,12,25,16,33,14.80
2007,12,25,16,34,8.20
2007,12,25,16,35,5.70
2007,12,25,16,36,7.40
2007,12,25,16,37,10.00
2007,12,25,16,38,13.90
2007,12,25,16,39,8.40
2007,12,25,16,40,4.70
2007,12,25,16,41,14.50
2007,12,25,16,42,17.40
2007,12,25,16,43,8.30
2007,12,25,16,44,5.50
2007,12,25,16,45,7.20
2007,12,25,16,46,3.50
2007,12,25,16,47,9.20
2007,12,25,16,48,16.10
2007,12,25,16,49,11.70
2007,12,25,16,50,10.60
2007,12,25,16,51,6.80
2007,12,25,16,52,15.10
2007,12,25,16,53,9.50
2007,12,25,16,54,9.30
2007,12,25,16,55,13.40
2007,12,25,16,56,9.70
2007,12,25,16,57,16.70
2007,12,25,16,58,9.70
2007,12,25,16,59,12.50
2007,12,25,17,00,18.90
2007,12,25,17,01,13.30
2007,12,25,17,02,12.80
2007,12,25,17,03,13.60
2007,12,25,17,04,5.90
2007,12,25,17,05,8.20
2007,12,25,17,06,6.90
2007,12,25,17,07,9.60
2007,12,25,17,08,15.30
2007,12,25,17,09,11.90
2007,12,25,17,10,10.10
2007,12,25,17,11,5.30
2007,12,25,17,12,9.60
2007,12,25,17,13,14.00
2007,12,25,17,14,7.10
2007,12,25,17,15,8.10
2007,12,25,17,16,11.50
2007,12,25,17,17,8.80
2007,12,25,17,18,15.00
2007,12,25,17,19,13.60
2007,12,25,17,20,9.10
2007,12,25,17,21,13.50
2007,12,25,17,22,7.10
2007,12,25,17,23,7.70
2007,12,25,17,24,12.10
2007,12,25,17,25,7.60
2007,12,25,17,26,11.50
2007,12,25,17,27,8.50
2007,12,25,17,28,11.10
2007,12,25,17,29,7.00
2007,12,25,17,30,8.60
2007,12,25,17,31,8.80
2007,12,25,17,32,13.30
2007,12,25,17,33,5.20
2007,12,25,17,34,7.40
2007,12,25,17,35,10.50
2007,12,25,17,36,12.10
2007,12,25,17,37,15.20
2007,12,25,17,38,10.80
2007,12,25,17,39,9.90
2007,12,25,17,40,4.50
2007,12,25,17,41,6.10
2007,12,25,17,42,4.30
2007,12,25,17,43,6.70
2007,12,25,17,44,9.70
2007,12,25,17,45,6.00
2007,12,25,17,46,8.20
2007,12,25,17,47,9.70
2007,12,25,17,48,8.60
2007,12,25,17,49,11.40
2007,12,25,17,50,9.60
2007,12,25,17,51,10.30
2007,12,25,17,52,5.20
2007,12,25,17,53,7.10
2007,12,25,17,54,5.70
2007,12,25,17,55,12.20
2007,12,25,17,56,6.20
2007,12,25,17,57,5.80
2007,12,25,17,58,5.00
2007,12,25,17,59,11.80
2007,12,25,18,00,6.10
2007,12,25,18,01,6.00
2007,12,25,18,02,15.50
2007,12,25,18,03,13.30
2007,12,25,18,04,13.40
2007,12,25,18,05,6.20
2007,12,25,18,06,12.00
2007,12,25,18,07,7.10
2007,12,25,18,08,7.50
2007,12,25,18,09,7.00
2007,12,25,18,10,12.60
2007,12,25,18,11,13.10
2007,12,25,18,12,7.20
2007,12,25,18,13,6.00
2007,12,25,18,14,8.10
2007,12,25,18,15,12.80
2007,12,25,18,16,9.70
2007,12,25,18,17,9.80
2007,12,25,18,18,7.40
2007,12,25,18,19,20.30
2007,12,25,18,20,11.20
2007,12,25,18,21,16.70
2007,12,25,18,22,7.10
2007,12,25,18,23,4.20
2007,12,25,18,24,10.10
2007,12,25,18,25,13.40
2007,12,25,18,26,6.20
2007,12,25,18,27,10.80
2007,12,25,18,28,10.10
2007,12,25,18,29,6.50
2007,12,25,18,30,9.70
2007,12,25,18,31,10.20
2007,12,25,18,32,6.70
2007,12,25,18,33,2.10
2007,12,25,18,34,4.20
2007,12,25,18,35,9.50